< < Back
Terminal Aerodrome Forecast


Current Version              Previous Versions:   1  2  3  4  5  6  7  8  9  

Terminal Aerodrome Forecast

220
FTUS42 KJAX 302300
TAFJAX
TAF
KJAX 302320Z 0100/0124 04004KT P6SM SCT030 BKN050 BKN200
     FM010300 01002KT P6SM SCT050 SCT250
     FM010900 02003KT 6SM BR SCT025
     FM011300 05005KT P6SM BKN035
     FM011800 08008KT P6SM BKN040=

Latest METAR

537
SAUS80 KWBC 020000 RRA
MTRJAX
METAR KJAX 012356Z 35004KT 10SM BKN055 BKN090 24/22 A2997 RMK AO2 SLP149
T02390222 10272 20239 53008


USA.gov is the U.S. government's official web portal to all federal, state and local government web resources and services.